Skip Page Navigation
NASA JPL Caltech
NASA Logo - Jet Propulsion Laboratory + View the NASA Portal
+ Center for Near-Earth Object Studies
JPL Home Earth Solar System Stars & Galaxies Technology
JPL Solar System Dynamics
BODIES ORBITS EPHEMERIDES TOOLS PHYSICAL DATA DISCOVERY FAQ SITE MAP
JPL Small-Body Database Browser
Search: [ help ]  
134299 (2006 DW73)
Classification: Main-belt Asteroid          SPK-ID: 2134299
Ephemeris | Orbit Diagram | Orbital Elements | Mission Design | Physical Parameters | Discovery Circumstances | Close-Approach Data ]

[ show orbit diagram ]
Orbital Elements at Epoch 2459000.5 (2020-May-31.0) TDB
Reference: JPL 18 (heliocentric ecliptic J2000)
 Element Value Uncertainty (1-sigma)   Units 
e .03455518005677178 3.5626e-08  
a 2.278579618333231 1.2113e-08 au
q 2.199842889348036 8.1133e-08 au
i 3.898687764977956 4.4154e-06 deg
node 141.7208121558545 6.4069e-05 deg
peri 309.9974194752106 9.7186e-05 deg
M 124.4637179885996 7.1822e-05 deg
tp 2458566.154817708654
(2019-Mar-23.65481771)
0.00025096 TDB
period 1256.303990848215
3.44
1.0018e-05
2.743e-08
d
yr
n .2865548486851019 2.2851e-09 deg/d
Q 2.357316347318426 1.2532e-08 au
  Orbit Determination Parameters
   # obs. used (total)      431  
   data-arc span      6710 days (18.37 yr)  
   first obs. used      2001-12-11  
   last obs. used      2020-04-25  
   planetary ephem.      DE431  
   SB-pert. ephem.      SB431-N16  
   condition code      0  
   norm. resid. RMS      .6173  
   source      ORB  
   producer      Otto Matic  
   solution date      2020-May-20 22:18:13  

Additional Information
 Earth MOID = 1.21889 au 
 Jupiter MOID = 2.68021 au 
 T_jup = 3.603 
[ show covariance matrix ]

Ephemeris | Orbit Diagram | Orbital Elements | Mission Design | Physical Parameters | Discovery Circumstances | Close-Approach Data ]

Physical Parameter Table
Parameter Symbol Value Units Sigma Reference Notes
absolute magnitude H 16.8   n/a MPO379409  

134299 (2006 DW73)          Discovered 2006-Feb-23 by Spacewatch at Kitt Peak
Reference: 20060711/Numbers.arcLast Updated: 2006-07-17

[ show close-approach data ]
Alternate Designations
 2006 DW73 = 2001 XU209 
Ephemeris | Orbit Diagram | Orbital Elements | Mission Design | Physical Parameters | Discovery Circumstances | Close-Approach Data ]
ABOUT SSD CREDITS/AWARDS PRIVACY/COPYRIGHT GLOSSARY LINKS
FirstGov 2020-Oct-25 08:45 UT
(server date/time)  
NASA Home Page
Site Manager:   Ryan S. Park
Webmaster  Alan B. Chamberlin